Starlink 11381

operational
NORAD ID: 62094 Int'l Des: 2024-220 Owner: SPXS Country: US Constellation: starlink
LEOCIRCULAR

Über Starlink 11381

Beschreibung wird geladen...

Live-Position

3D-Globus wird geladen...

Nächste Überflüge

Höhenverlauf

Altitude vs Time

uPlot chart will show altitude changes over time

Zweizeiliger Elementsatz

1 62094U 24220G 25258.38889450 .00427266 00000-0 31455-2 0 9995
2 62094 42.9984 19.6640 0001743 264.8042 95.2627 15.70988346 47380
Epoch: 15. Sept. 2025 • Age: 13 hours

Aktueller Status

Höhe 358.9 km
Geschwindigkeit 7.70 km/s
Subsatellitenpunkt 42.44°N, 154.75°E
Startdatum 25. Nov. 2024
Alter 0.8 years
Typ internet

Technische Details

Klassifizierung Payload
Masse 960.00 kg
Trockenmasse 910.00 kg
Gesamtmasse 960.00 kg
Länge 0.30 m
Durchmesser 4.10 m
Spannweite 29.00 m
Form Box + pan
Hersteller SPXS
Bus-Typ Starlink V2MD
Phasenstatus In Orbit
Besitzer/Staat SPXS/US

Große Konstellationen

Loading constellations...